Skip Page Navigation
NASA JPL Caltech
NASA Logo - Jet Propulsion Laboratory + View the NASA Portal
+ Near-Earth Object (NEO) Program
Search JPL
JPL Home Earth Solar System Stars & Galaxies Technology
JPL Solar System Dynamics
BODIES ORBITS EPHEMERIDES TOOLS PHYSICAL DATA DISCOVERY FAQ SITE MAP
JPL Small-Body Database Browser
Search: [ help ]  
10734 Wieck (1988 CT4)
Classification: Main-belt Asteroid          SPK-ID: 2010734
Ephemeris | Orbit Diagram | Orbital Elements | Physical Parameters | Discovery Circumstances | Close-Approach Data ]

[ show orbit diagram ]
Orbital Elements at Epoch 2457000.5 (2014-Dec-09.0) TDB
Reference: JPL 15 (heliocentric ecliptic J2000)
 Element Value Uncertainty (1-sigma)   Units 
e .05171518342742519 5.6073e-08  
a 3.019501038609273 2.8651e-08 AU
q 2.863346988538294 1.815e-07 AU
i 9.40024565963623 6.8004e-06 deg
node 197.9252075643715 3.0263e-05 deg
peri 71.05425608797928 7.0557e-05 deg
M 288.7057979013888 6.3303e-05 deg
tp 2457380.035945656978
(2015-Dec-23.53594566)
0.00033666 JED
period 1916.466366332667
5.25
2.7277e-05
7.468e-08
d
yr
n .1878457176834743 2.6736e-09 deg/d
Q 3.175655088680252 3.0133e-08 AU
  Orbit Determination Parameters
   # obs. used (total)      1141  
   data-arc span      12643 days (34.61 yr)  
   first obs. used      1980-10-13  
   last obs. used      2015-05-26  
   planetary ephem.      DE431  
   SB-pert. ephem.      SB431-BIG16  
   condition code      0  
   fit RMS      .53727  
   data source      ORB  
   producer      Otto Matic  
   solution date      2015-Jul-06 12:05:08  

Additional Information
 Earth MOID = 1.86724 AU 
 T_jup = 3.224 
[ show covariance matrix ]

Ephemeris | Orbit Diagram | Orbital Elements | Physical Parameters | Discovery Circumstances | Close-Approach Data ]

Physical Parameter Table
Parameter Symbol Value Units Sigma Reference Notes
absolute magnitude H 12.9 mag n/a MPO337348  

10734 Wieck          
Clara Josephine Wieck (1819-1896) was a German child prodigy and by 1835 had established a reputation as a pianist throughout Europe. In 1840 she married the famous composer Robert Schumann. She has left us a beautiful piano concerto, chamber music, songs and many pieces for solo piano.
NOTE: some special characters may not display properly (any characters within {} are an attempt to place the proper accent above a character)
Reference: 20000320/MPCPages.arcLast Updated: 2013-03-29

[ show close-approach data ]
Alternate Designations
 1988 CT4 = 1980 TA9 = 1988 CE6 = 1996 SV6 
Ephemeris | Orbit Diagram | Orbital Elements | Physical Parameters | Discovery Circumstances | Close-Approach Data ]
ABOUT SSD CREDITS/AWARDS PRIVACY/COPYRIGHT GLOSSARY LINKS
FirstGov 2015-Jul-29 13:31 UT
(server date/time)  
NASA Home Page
Site Manager:   Ryan S. Park
Webmaster  Alan B. Chamberlin